time, Switch, Flow(0), Analog(2)
yyyy/mm/dd HH:MM:SS.fff, True=FILTERED|False=TOTAL, L/min, V
2023/07/01 14:00:04.799, True, 1.348, 0.130617
2023/07/01 14:00:05.303, True, 0.995, 0.130922
2023/07/01 14:00:05.806, True, 0.997, 0.133593
2023/07/01 14:00:06.303, True, 1.346, 0.133135
2023/07/01 14:00:06.807, True, 0.995, 0.129473
2023/07/01 14:00:07.310, True, 0.995, 0.131762
2023/07/01 14:00:07.807, True, 1.011, 0.133135
2023/07/01 14:00:08.311, True, 0.995, 0.130999
2023/07/01 14:00:08.815, True, 0.663, 0.132143
2023/07/01 14:00:09.311, True, 1.011, 0.130312
2023/07/01 14:00:09.815, True, 0.995, 0.129778
2023/07/01 14:00:10.319, True, 0.995, 0.132219
2023/07/01 14:00:10.815, True, 1.011, 0.131304
2023/07/01 14:00:11.319, True, 0.995, 0.129931
2023/07/01 14:00:11.823, True, 0.995, 0.131762
2023/07/01 14:00:12.319, True, 1.011, 0.131380
2023/07/01 14:00:12.823, True, 0.995, 0.129854
2023/07/01 14:00:13.327, True, 0.994, 0.132372
2023/07/01 14:00:13.823, True, 1.011, 0.130694
2023/07/01 14:00:14.327, True, 0.995, 0.129473
2023/07/01 14:00:14.831, True, 0.995, 0.131380
2023/07/01 14:00:15.335, True, 0.995, 0.130694
2023/07/01 14:00:15.831, True, 1.011, 0.132143
2023/07/01 14:00:16.335, True, 0.994, 0.130541
2023/07/01 14:00:16.839, True, 0.994, 0.130159
2023/07/01 14:00:17.335, True, 1.011, 0.132448
2023/07/01 14:00:17.839, True, 0.995, 0.128862
2023/07/01 14:00:18.335, True, 1.011, 0.129320
2023/07/01 14:00:18.839, True, 0.994, 0.130694
2023/07/01 14:00:19.343, True, 0.995, 0.131380
2023/07/01 14:00:19.839, True, 1.012, 0.130922
2023/07/01 14:00:20.343, True, 0.995, 0.130694
2023/07/01 14:00:20.847, True, 0.662, 0.129397
2023/07/01 14:00:21.351, True, 0.996, 0.130465
2023/07/01 14:00:21.846, True, 1.010, 0.129702
2023/07/01 14:00:22.351, True, 0.995, 0.132067
2023/07/01 14:00:22.847, True, 1.011, 0.130846
2023/07/01 14:00:23.351, True, 0.995, 0.132601
2023/07/01 14:00:23.855, True, 0.995, 0.131151
2023/07/01 14:00:24.351, True, 1.011, 0.131991
2023/07/01 14:00:24.855, True, 0.995, 0.131380
2023/07/01 14:00:25.359, True, 0.995, 0.131151
2023/07/01 14:00:25.855, True, 1.011, 0.131304
2023/07/01 14:00:26.359, True, 0.995, 0.132830
2023/07/01 14:00:26.863, True, 1.326, 0.130846
2023/07/01 14:00:27.359, True, 1.013, 0.131380
2023/07/01 14:00:27.863, True, 0.993, 0.133211
2023/07/01 14:00:28.367, True, 0.995, 0.131991
2023/07/01 14:00:28.863, True, 1.011, 0.130922
2023/07/01 14:00:29.367, True, 0.995, 0.130617
2023/07/01 14:00:29.863, True, 1.012, 0.131380
2023/07/01 14:00:30.367, True, 0.994, 0.130236
2023/07/01 14:00:30.871, True, 0.995, 0.130770
2023/07/01 14:00:31.375, True, 0.995, 0.131075
2023/07/01 14:00:31.871, True, 1.011, 0.131075
2023/07/01 14:00:32.375, True, 0.995, 0.131762
2023/07/01 14:00:32.879, True, 0.995, 0.128481
2023/07/01 14:00:33.375, True, 1.011, 0.130846
2023/07/01 14:00:33.879, True, 0.995, 0.131838
2023/07/01 14:00:34.383, True, 0.995, 0.131456
2023/07/01 14:00:34.879, True, 1.011, 0.133059
2023/07/01 14:00:35.383, True, 0.995, 0.132219
2023/07/01 14:00:35.879, True, 1.011, 0.131228
2023/07/01 14:00:36.383, True, 0.994, 0.129702
2023/07/01 14:00:36.887, True, 0.995, 0.130922
2023/07/01 14:00:37.383, True, 1.011, 0.132601
2023/07/01 14:00:37.887, True, 0.995, 0.131228
2023/07/01 14:00:38.391, True, 0.995, 0.130312
2023/07/01 14:00:38.887, True, 1.011, 0.131914
2023/07/01 14:00:39.391, True, 0.663, 0.132296
2023/07/01 14:00:39.895, True, 0.995, 0.127871
2023/07/01 14:00:40.399, True, 0.995, 0.130999
2023/07/01 14:00:40.895, True, 1.011, 0.130694
2023/07/01 14:00:41.399, True, 1.326, 0.131456
2023/07/01 14:00:41.895, True, 1.011, 0.131380
2023/07/01 14:00:42.399, True, 0.663, 0.133898
2023/07/01 14:00:42.903, True, 0.995, 0.131380
2023/07/01 14:00:43.399, True, 1.011, 0.131228
2023/07/01 14:00:43.903, True, 0.995, 0.133059
2023/07/01 14:00:44.407, True, 1.328, 0.130770
2023/07/01 14:00:44.903, True, 1.010, 0.131304
2023/07/01 14:00:45.407, True, 0.995, 0.131991
2023/07/01 14:00:45.911, True, 0.995, 0.129854
2023/07/01 14:00:46.407, True, 1.011, 0.130770
2023/07/01 14:00:46.911, True, 0.995, 0.130922
2023/07/01 14:00:47.407, True, 1.011, 0.130846
2023/07/01 14:00:47.911, True, 0.995, 0.131685
2023/07/01 14:00:48.415, True, 0.995, 0.132143
2023/07/01 14:00:48.911, True, 1.012, 0.130465
2023/07/01 14:00:49.415, True, 0.994, 0.132372
2023/07/01 14:00:49.919, True, 0.995, 0.131456
2023/07/01 14:00:50.415, True, 1.348, 0.129778
2023/07/01 14:00:50.919, True, 0.995, 0.130770
2023/07/01 14:00:51.423, True, 0.995, 0.129473
2023/07/01 14:00:51.919, True, 1.011, 0.130465
2023/07/01 14:00:52.423, True, 0.995, 0.131533
2023/07/01 14:00:52.919, True, 1.011, 0.131991
2023/07/01 14:00:53.423, True, 1.326, 0.131991
2023/07/01 14:00:53.927, True, 0.995, 0.130922
2023/07/01 14:00:54.423, True, 0.674, 0.133211
2023/07/01 14:00:54.927, True, 1.326, 0.130541
2023/07/01 14:00:55.431, True, 0.663, 0.134585
2023/07/01 14:00:55.935, True, 0.995, 0.132219
2023/07/01 14:00:56.431, True, 1.011, 0.132982
2023/07/01 14:00:56.935, True, 0.995, 0.132906
2023/07/01 14:00:57.439, True, 0.996, 0.131914
2023/07/01 14:00:57.935, True, 1.009, 0.129473
2023/07/01 14:00:58.439, True, 0.995, 0.131838
2023/07/01 14:00:58.943, True, 0.995, 0.133440
2023/07/01 14:00:59.439, True, 1.011, 0.131151
2023/07/01 14:00:59.943, True, 0.995, 0.132601
2023/07/01 14:01:00.439, True, 1.348, 0.133745
2023/07/01 14:01:00.943, True, 0.995, 0.131380
2023/07/01 14:01:01.447, True, 0.995, 0.131304
2023/07/01 14:01:01.943, True, 1.012, 0.133669
2023/07/01 14:01:02.447, True, 0.995, 0.133364
2023/07/01 14:01:02.951, True, 0.994, 0.134356
2023/07/01 14:01:03.447, True, 1.011, 0.132372
2023/07/01 14:01:03.951, True, 0.995, 0.133974
2023/07/01 14:01:04.455, True, 0.995, 0.134508
2023/07/01 14:01:04.951, True, 1.011, 0.133593
2023/07/01 14:01:05.455, True, 0.995, 0.134661
2023/07/01 14:01:05.959, True, 1.326, 0.135653
2023/07/01 14:01:06.455, True, 0.674, 0.134356
2023/07/01 14:01:06.959, True, 0.995, 0.133516
2023/07/01 14:01:07.463, True, 0.994, 0.136492
2023/07/01 14:01:07.959, True, 1.011, 0.135195
2023/07/01 14:01:08.463, True, 0.996, 0.131991
2023/07/01 14:01:08.967, True, 0.993, 0.135500
2023/07/01 14:01:09.463, True, 1.011, 0.135348
2023/07/01 14:01:09.967, True, 0.995, 0.132143
2023/07/01 14:01:10.471, True, 0.995, 0.135195
2023/07/01 14:01:10.967, True, 1.011, 0.134890
2023/07/01 14:01:11.471, True, 0.996, 0.133211
2023/07/01 14:01:11.975, True, 0.993, 0.135882
2023/07/01 14:01:12.472, True, 1.011, 0.136034
2023/07/01 14:01:12.975, True, 0.995, 0.136797
2023/07/01 14:01:13.479, True, 0.994, 0.137789
2023/07/01 14:01:13.975, True, 1.011, 0.136187
2023/07/01 14:01:14.479, True, 0.995, 0.136492
2023/07/01 14:01:14.983, True, 0.995, 0.136187
2023/07/01 14:01:15.479, True, 1.011, 0.136034
2023/07/01 14:01:15.983, True, 0.997, 0.134203
2023/07/01 14:01:16.487, True, 0.993, 0.133745
2023/07/01 14:01:16.983, True, 1.011, 0.136339
2023/07/01 14:01:17.487, True, 0.995, 0.135882
2023/07/01 14:01:17.991, True, 0.996, 0.136873
2023/07/01 14:01:18.487, True, 1.009, 0.137255
2023/07/01 14:01:18.991, True, 0.995, 0.137026
2023/07/01 14:01:19.495, True, 0.995, 0.136034
2023/07/01 14:01:19.999, True, 1.326, 0.137713
2023/07/01 14:01:20.495, True, 1.011, 0.135729
2023/07/01 14:01:20.999, True, 0.995, 0.139086
2023/07/01 14:01:21.503, True, 0.995, 0.137026
2023/07/01 14:01:21.999, True, 1.011, 0.135271
2023/07/01 14:01:22.503, True, 0.995, 0.137560
2023/07/01 14:01:23.007, True, 0.995, 0.138170
2023/07/01 14:01:23.503, True, 1.011, 0.137713
2023/07/01 14:01:24.007, True, 0.995, 0.137942
2023/07/01 14:01:24.511, True, 0.995, 0.138323
2023/07/01 14:01:25.007, True, 1.011, 0.136034
2023/07/01 14:01:25.510, True, 0.995, 0.137865
2023/07/01 14:01:26.015, True, 0.995, 0.136645
2023/07/01 14:01:26.511, True, 0.674, 0.137026
2023/07/01 14:01:27.015, True, 1.326, 0.137865
2023/07/01 14:01:27.519, True, 0.995, 0.139010
2023/07/01 14:01:28.015, True, 1.011, 0.136568
2023/07/01 14:01:28.519, True, 0.663, 0.139010
2023/07/01 14:01:29.023, True, 0.995, 0.136034
2023/07/01 14:01:29.519, True, 1.011, 0.136339
2023/07/01 14:01:30.023, True, 0.995, 0.135500
2023/07/01 14:01:30.527, True, 0.995, 0.134966
2023/07/01 14:01:31.023, True, 1.012, 0.138399
2023/07/01 14:01:31.527, True, 0.993, 0.134966
2023/07/01 14:01:32.023, True, 1.012, 0.138399
2023/07/01 14:01:32.527, True, 0.993, 0.137713
2023/07/01 14:01:33.031, True, 0.995, 0.135805
2023/07/01 14:01:33.535, True, 0.995, 0.137026
2023/07/01 14:01:34.031, True, 1.011, 0.136873
2023/07/01 14:01:34.535, True, 0.996, 0.138399
2023/07/01 14:01:35.039, True, 0.994, 0.137713
2023/07/01 14:01:35.535, True, 1.348, 0.136721
2023/07/01 14:01:36.039, True, 0.994, 0.138094
2023/07/01 14:01:36.543, True, 0.995, 0.137102
2023/07/01 14:01:37.039, True, 1.011, 0.137255
2023/07/01 14:01:37.543, True, 0.994, 0.137865
2023/07/01 14:01:38.047, True, 0.996, 0.138323
2023/07/01 14:01:38.543, True, 0.674, 0.138476
2023/07/01 14:01:39.047, True, 1.325, 0.139010
2023/07/01 14:01:39.551, True, 0.996, 0.134661
2023/07/01 14:01:40.047, True, 1.011, 0.137026
2023/07/01 14:01:40.551, True, 0.994, 0.138323
2023/07/01 14:01:41.055, True, 0.996, 0.139467
2023/07/01 14:01:41.551, True, 1.011, 0.137407
2023/07/01 14:01:42.055, True, 0.994, 0.139773
2023/07/01 14:01:42.559, True, 0.996, 0.139239
2023/07/01 14:01:43.055, True, 1.010, 0.137942
2023/07/01 14:01:43.559, True, 0.996, 0.136492
2023/07/01 14:01:44.063, True, 0.995, 0.140612
2023/07/01 14:01:44.559, True, 1.011, 0.137102
2023/07/01 14:01:45.062, True, 0.993, 0.138552
2023/07/01 14:01:45.567, True, 0.996, 0.139544
2023/07/01 14:01:46.063, True, 1.011, 0.136950
2023/07/01 14:01:46.567, True, 0.993, 0.139239
2023/07/01 14:01:47.071, True, 0.996, 0.138018
2023/07/01 14:01:47.567, True, 1.011, 0.138476
2023/07/01 14:01:48.071, True, 0.993, 0.138933
2023/07/01 14:01:48.575, True, 0.994, 0.137942
2023/07/01 14:01:49.071, True, 1.348, 0.140078
2023/07/01 14:01:49.575, True, 0.995, 0.138170
2023/07/01 14:01:50.079, True, 0.995, 0.138323
2023/07/01 14:01:50.575, True, 1.011, 0.138628
2023/07/01 14:01:51.079, True, 0.995, 0.139773
2023/07/01 14:01:51.583, True, 0.994, 0.137255
2023/07/01 14:01:52.079, True, 1.011, 0.139315
2023/07/01 14:01:52.583, True, 0.996, 0.136187
2023/07/01 14:01:53.087, True, 0.994, 0.139391
2023/07/01 14:01:53.591, True, 0.994, 0.137560
2023/07/01 14:01:54.087, True, 1.013, 0.139773
2023/07/01 14:01:54.591, True, 0.994, 0.139315
2023/07/01 14:01:55.095, True, 0.994, 0.139086
2023/07/01 14:01:55.591, True, 1.010, 0.140230
2023/07/01 14:01:56.095, True, 0.995, 0.138094
2023/07/01 14:01:56.599, True, 0.995, 0.137789
2023/07/01 14:01:57.095, True, 1.348, 0.137560
2023/07/01 14:01:57.599, True, 0.995, 0.138628
2023/07/01 14:01:58.095, True, 1.011, 0.139849
2023/07/01 14:01:58.599, True, 0.996, 0.139239
2023/07/01 14:01:59.103, True, 0.995, 0.138018
2023/07/01 14:01:59.599, True, 1.010, 0.139010
2023/07/01 14:02:00.103, True, 0.995, 0.137713
2023/07/01 14:02:00.607, True, 0.996, 0.138552
2023/07/01 14:02:01.103, True, 1.010, 0.135119
2023/07/01 14:02:01.607, True, 0.995, 0.138552
2023/07/01 14:02:02.111, True, 0.995, 0.140002
2023/07/01 14:02:02.607, True, 1.010, 0.138018
2023/07/01 14:02:03.111, True, 1.326, 0.138476
2023/07/01 14:02:03.615, True, 0.995, 0.139620
2023/07/01 14:02:04.119, True, 0.996, 0.138781
2023/07/01 14:02:04.615, True, 1.009, 0.138094
2023/07/01 14:02:05.119, True, 0.995, 0.137942
2023/07/01 14:02:05.623, True, 0.995, 0.139544
2023/07/01 14:02:06.119, True, 1.012, 0.137713
2023/07/01 14:02:06.623, True, 0.994, 0.138094
2023/07/01 14:02:07.127, True, 0.995, 0.139315
2023/07/01 14:02:07.623, True, 1.011, 0.139391
2023/07/01 14:02:08.127, True, 0.995, 0.138476
2023/07/01 14:02:08.631, True, 1.326, 0.138094
2023/07/01 14:02:09.126, True, 1.012, 0.139315
2023/07/01 14:02:09.631, True, 0.995, 0.137102
2023/07/01 14:02:10.135, True, 0.994, 0.138170
2023/07/01 14:02:10.631, True, 0.674, 0.138857
2023/07/01 14:02:11.136, True, 0.995, 0.138094
2023/07/01 14:02:11.639, True, 0.995, 0.138705
2023/07/01 14:02:12.135, True, 1.011, 0.139086
2023/07/01 14:02:12.639, True, 0.995, 0.137179
2023/07/01 14:02:13.143, True, 0.995, 0.139925
2023/07/01 14:02:13.639, True, 0.674, 0.137484
2023/07/01 14:02:14.143, True, 0.995, 0.139696
2023/07/01 14:02:14.647, True, 0.995, 0.139086
2023/07/01 14:02:15.143, True, 1.011, 0.139544
2023/07/01 14:02:15.647, True, 0.996, 0.140688
2023/07/01 14:02:16.151, True, 0.994, 0.137560
2023/07/01 14:02:16.647, True, 1.011, 0.139849
2023/07/01 14:02:17.151, True, 0.995, 0.138705
2023/07/01 14:02:17.655, True, 0.995, 0.137942
2023/07/01 14:02:18.151, True, 1.011, 0.136568
2023/07/01 14:02:18.655, True, 0.995, 0.140230
2023/07/01 14:02:19.159, True, 0.995, 0.137865
2023/07/01 14:02:19.655, True, 1.012, 0.139391
2023/07/01 14:02:20.159, True, 0.994, 0.140688
2023/07/01 14:02:20.663, True, 0.995, 0.138399
2023/07/01 14:02:21.159, True, 1.011, 0.138628
2023/07/01 14:02:21.663, True, 0.995, 0.139544
2023/07/01 14:02:22.159, True, 1.012, 0.138323
2023/07/01 14:02:22.663, True, 0.994, 0.140002
2023/07/01 14:02:23.167, True, 0.994, 0.138247
2023/07/01 14:02:23.671, True, 0.995, 0.137255
2023/07/01 14:02:24.167, True, 1.011, 0.139696
2023/07/01 14:02:24.671, True, 0.995, 0.137560
2023/07/01 14:02:25.175, True, 1.326, 0.138323
2023/07/01 14:02:25.671, True, 1.011, 0.140536
2023/07/01 14:02:26.175, True, 0.995, 0.138857
2023/07/01 14:02:26.679, True, 0.995, 0.134966
2023/07/01 14:02:27.175, True, 1.011, 0.139086
2023/07/01 14:02:27.679, True, 0.995, 0.138018
2023/07/01 14:02:28.183, True, 0.995, 0.139315
2023/07/01 14:02:28.679, True, 1.011, 0.138476
2023/07/01 14:02:29.183, True, 0.995, 0.139773
2023/07/01 14:02:29.687, True, 0.995, 0.138323
2023/07/01 14:02:30.183, True, 1.010, 0.138552
2023/07/01 14:02:30.687, True, 0.995, 0.139773
2023/07/01 14:02:31.191, True, 0.995, 0.136950
2023/07/01 14:02:31.687, True, 1.011, 0.139696
2023/07/01 14:02:32.191, True, 0.995, 0.139086
2023/07/01 14:02:32.695, True, 1.326, 0.137407
2023/07/01 14:02:33.191, True, 1.011, 0.136110
2023/07/01 14:02:33.695, True, 0.995, 0.138628
2023/07/01 14:02:34.199, True, 0.995, 0.138399
2023/07/01 14:02:34.695, True, 1.011, 0.138323
2023/07/01 14:02:35.199, True, 0.995, 0.139849
2023/07/01 14:02:35.703, True, 0.995, 0.139773
2023/07/01 14:02:36.199, True, 1.011, 0.137713
2023/07/01 14:02:36.703, True, 0.995, 0.138552
2023/07/01 14:02:37.207, True, 0.995, 0.138018
2023/07/01 14:02:37.703, True, 1.011, 0.139620
2023/07/01 14:02:38.207, True, 0.995, 0.137789
2023/07/01 14:02:38.703, True, 1.011, 0.139391
2023/07/01 14:02:39.207, True, 0.995, 0.138018
2023/07/01 14:02:39.711, True, 0.995, 0.139849
2023/07/01 14:02:40.215, True, 0.995, 0.138552
2023/07/01 14:02:40.711, True, 1.011, 0.137713
2023/07/01 14:02:41.215, True, 0.995, 0.138628
2023/07/01 14:02:41.711, True, 1.011, 0.136950
2023/07/01 14:02:42.215, True, 0.995, 0.139391
2023/07/01 14:02:42.720, True, 0.995, 0.138628
2023/07/01 14:02:43.215, True, 1.011, 0.137102
2023/07/01 14:02:43.719, True, 0.995, 0.139925
2023/07/01 14:02:44.223, True, 0.995, 0.137102
2023/07/01 14:02:44.719, True, 1.011, 0.138170
2023/07/01 14:02:45.223, True, 1.327, 0.135424
2023/07/01 14:02:45.727, True, 0.996, 0.137636
2023/07/01 14:02:46.223, True, 1.009, 0.138094
2023/07/01 14:02:46.727, True, 0.995, 0.136873
2023/07/01 14:02:47.231, True, 0.995, 0.135119
2023/07/01 14:02:47.727, True, 1.011, 0.139086
2023/07/01 14:02:48.231, True, 0.995, 0.138399
2023/07/01 14:02:48.727, True, 1.011, 0.140230
2023/07/01 14:02:49.231, True, 0.995, 0.137713
2023/07/01 14:02:49.735, True, 0.995, 0.139925
2023/07/01 14:02:50.231, True, 1.011, 0.137789
2023/07/01 14:02:50.735, True, 0.995, 0.137331
2023/07/01 14:02:51.239, True, 0.995, 0.138933
2023/07/01 14:02:51.735, True, 1.011, 0.136797
2023/07/01 14:02:52.239, True, 0.995, 0.137331
2023/07/01 14:02:52.743, True, 0.995, 0.138552
2023/07/01 14:02:53.239, True, 1.010, 0.140536
2023/07/01 14:02:53.743, True, 0.995, 0.138323
2023/07/01 14:02:54.239, True, 1.011, 0.140154
2023/07/01 14:02:54.743, True, 0.995, 0.135882
2023/07/01 14:02:55.247, True, 0.995, 0.136797
2023/07/01 14:02:55.743, True, 1.011, 0.137179
2023/07/01 14:02:56.247, True, 0.995, 0.137865
2023/07/01 14:02:56.751, True, 0.995, 0.138857
2023/07/01 14:02:57.247, True, 0.675, 0.138628
2023/07/01 14:02:57.751, True, 0.994, 0.138476
2023/07/01 14:02:58.255, True, 0.995, 0.135119
2023/07/01 14:02:58.751, True, 1.010, 0.136721
2023/07/01 14:02:59.255, True, 0.995, 0.135958
2023/07/01 14:02:59.759, True, 0.995, 0.137026
2023/07/01 14:03:00.254, True, 1.348, 0.137484
2023/07/01 14:03:00.759, True, 0.995, 0.138781
2023/07/01 14:03:01.263, True, 0.663, 0.139391
2023/07/01 14:03:01.759, True, 1.348, 0.136187
2023/07/01 14:03:02.263, True, 0.995, 0.137484
2023/07/01 14:03:02.767, True, 0.995, 0.136721
2023/07/01 14:03:03.263, True, 1.011, 0.139086
2023/07/01 14:03:03.767, True, 0.995, 0.138399
2023/07/01 14:03:04.271, True, 0.995, 0.141451
2023/07/01 14:03:04.767, True, 1.011, 0.140383
2023/07/01 14:03:05.271, True, 0.995, 0.139162
2023/07/01 14:03:05.775, True, 0.995, 0.136873
2023/07/01 14:03:06.271, True, 1.011, 0.137484
2023/07/01 14:03:06.775, True, 0.995, 0.139239
2023/07/01 14:03:07.279, True, 0.995, 0.137636
2023/07/01 14:03:07.775, True, 1.011, 0.138018
2023/07/01 14:03:08.279, True, 0.995, 0.138705
2023/07/01 14:03:08.783, True, 1.326, 0.137484
2023/07/01 14:03:09.279, True, 1.011, 0.136568
2023/07/01 14:03:09.783, True, 0.995, 0.139315
2023/07/01 14:03:10.287, True, 0.995, 0.136110
2023/07/01 14:03:10.783, True, 1.011, 0.136950
2023/07/01 14:03:11.287, True, 0.995, 0.138705
2023/07/01 14:03:11.791, True, 0.995, 0.137102
2023/07/01 14:03:12.287, True, 1.011, 0.137102
2023/07/01 14:03:12.791, True, 0.995, 0.137331
2023/07/01 14:03:13.287, True, 1.011, 0.138247
2023/07/01 14:03:13.791, True, 0.995, 0.137560
2023/07/01 14:03:14.295, True, 0.995, 0.138323
2023/07/01 14:03:14.791, True, 1.011, 0.139162
2023/07/01 14:03:15.295, True, 0.995, 0.137560
2023/07/01 14:03:15.799, True, 0.996, 0.137102
2023/07/01 14:03:16.303, True, 0.994, 0.138170
2023/07/01 14:03:16.799, True, 1.011, 0.138247
2023/07/01 14:03:17.303, True, 0.995, 0.135805
2023/07/01 14:03:17.799, True, 1.011, 0.136797
2023/07/01 14:03:18.303, True, 0.995, 0.136492
2023/07/01 14:03:18.807, True, 0.995, 0.137331
2023/07/01 14:03:19.303, True, 1.011, 0.138781
2023/07/01 14:03:19.807, True, 0.995, 0.137942
2023/07/01 14:03:20.311, True, 1.326, 0.137942
2023/07/01 14:03:20.807, True, 0.674, 0.136950
2023/07/01 14:03:21.311, True, 1.326, 0.139162
2023/07/01 14:03:21.816, True, 0.995, 0.136492
2023/07/01 14:03:22.320, True, 0.995, 0.137179
2023/07/01 14:03:22.815, True, 1.011, 0.138018
2023/07/01 14:03:23.319, True, 0.994, 0.136110
2023/07/01 14:03:23.824, True, 0.996, 0.137942
2023/07/01 14:03:24.320, True, 1.010, 0.135805
2023/07/01 14:03:24.824, True, 0.995, 0.139391
2023/07/01 14:03:25.327, True, 1.329, 0.136263
2023/07/01 14:03:25.824, True, 1.011, 0.136339
2023/07/01 14:03:26.328, True, 0.993, 0.135348
2023/07/01 14:03:26.831, True, 0.996, 0.138094
2023/07/01 14:03:27.327, True, 1.011, 0.135729
2023/07/01 14:03:27.831, True, 0.995, 0.137255
2023/07/01 14:03:28.335, True, 0.993, 0.136568
2023/07/01 14:03:28.832, True, 1.011, 0.135042
2023/07/01 14:03:29.335, True, 0.996, 0.134890
2023/07/01 14:03:29.839, True, 0.994, 0.136645
2023/07/01 14:03:30.343, True, 0.995, 0.136339
2023/07/01 14:03:30.839, True, 1.011, 0.138170
2023/07/01 14:03:31.344, True, 0.995, 0.138399
2023/07/01 14:03:31.848, True, 0.995, 0.137026
2023/07/01 14:03:32.344, True, 1.011, 0.138399
2023/07/01 14:03:32.847, True, 0.995, 0.137713
2023/07/01 14:03:33.343, True, 1.012, 0.136339
2023/07/01 14:03:33.848, True, 0.994, 0.136110
2023/07/01 14:03:34.351, True, 0.994, 0.135882
2023/07/01 14:03:34.847, True, 1.011, 0.138552
2023/07/01 14:03:35.351, True, 0.995, 0.135729
2023/07/01 14:03:35.855, True, 0.995, 0.138476
2023/07/01 14:03:36.352, True, 1.011, 0.136568
2023/07/01 14:03:36.856, True, 0.995, 0.136645
2023/07/01 14:03:37.352, True, 1.011, 0.136950
2023/07/01 14:03:37.855, True, 0.995, 0.135424
2023/07/01 14:03:38.359, True, 0.995, 0.135882
2023/07/01 14:03:38.856, True, 1.012, 0.138399
2023/07/01 14:03:39.360, True, 0.994, 0.136797
2023/07/01 14:03:39.864, True, 0.994, 0.138094
2023/07/01 14:03:40.359, True, 1.011, 0.136645
2023/07/01 14:03:40.864, True, 0.995, 0.137789
2023/07/01 14:03:41.368, True, 0.995, 0.136416
2023/07/01 14:03:41.864, True, 1.011, 0.136568
2023/07/01 14:03:42.368, True, 0.995, 0.138552
2023/07/01 14:03:42.864, True, 1.011, 0.139010
2023/07/01 14:03:43.368, True, 0.995, 0.135958
2023/07/01 14:03:43.872, True, 0.995, 0.136645
2023/07/01 14:03:44.367, True, 1.348, 0.137255
2023/07/01 14:03:44.871, True, 0.995, 0.137942
2023/07/01 14:03:45.376, True, 0.663, 0.137636
2023/07/01 14:03:45.872, True, 1.011, 0.138170
2023/07/01 14:03:46.376, True, 0.995, 0.138018
2023/07/01 14:03:46.879, True, 0.996, 0.136416
2023/07/01 14:03:47.375, True, 1.010, 0.137102
2023/07/01 14:03:47.880, True, 0.995, 0.135729
2023/07/01 14:03:48.383, True, 0.995, 0.136339
2023/07/01 14:03:48.879, True, 1.011, 0.138476
2023/07/01 14:03:49.384, True, 0.995, 0.137636
2023/07/01 14:03:49.887, True, 0.994, 0.135348
2023/07/01 14:03:50.383, True, 1.011, 0.140688
2023/07/01 14:03:50.888, True, 0.995, 0.134966
2023/07/01 14:03:51.391, True, 0.994, 0.136339
2023/07/01 14:03:51.887, True, 1.011, 0.138247
2023/07/01 14:03:52.391, True, 0.995, 0.137560
2023/07/01 14:03:52.895, True, 0.996, 0.136721
2023/07/01 14:03:53.391, True, 1.009, 0.136873
2023/07/01 14:03:53.896, True, 0.995, 0.136263
2023/07/01 14:03:54.392, True, 1.011, 0.135424
2023/07/01 14:03:54.895, True, 0.995, 0.138552
2023/07/01 14:03:55.400, True, 0.995, 0.138018
2023/07/01 14:03:55.903, True, 0.995, 0.139239
2023/07/01 14:03:56.400, True, 1.011, 0.135576
2023/07/01 14:03:56.904, True, 0.997, 0.138476
2023/07/01 14:03:57.407, True, 0.994, 0.137560
2023/07/01 14:03:57.904, True, 1.010, 0.137179
2023/07/01 14:03:58.408, True, 0.995, 0.136416
2023/07/01 14:03:58.912, True, 0.995, 0.136721
2023/07/01 14:03:59.408, True, 1.348, 0.135653
2023/07/01 14:03:59.911, True, 0.995, 0.136492
2023/07/01 14:04:00.416, True, 0.995, 0.136873
2023/07/01 14:04:00.912, True, 1.011, 0.137560
2023/07/01 14:04:01.416, True, 0.995, 0.137255
2023/07/01 14:04:01.920, True, 0.995, 0.138094
2023/07/01 14:04:02.416, True, 1.011, 0.136950
2023/07/01 14:04:02.920, True, 0.995, 0.136797
2023/07/01 14:04:03.424, True, 0.995, 0.138628
2023/07/01 14:04:03.919, True, 1.011, 0.135195
2023/07/01 14:04:04.424, True, 0.995, 0.138857
2023/07/01 14:04:04.928, True, 0.995, 0.133516
2023/07/01 14:04:05.424, True, 1.011, 0.137102
2023/07/01 14:04:05.928, True, 0.995, 0.137026
2023/07/01 14:04:06.432, True, 0.995, 0.136187
2023/07/01 14:04:06.928, True, 1.011, 0.134661
2023/07/01 14:04:07.431, True, 0.995, 0.138323
2023/07/01 14:04:07.928, True, 1.011, 0.136339
2023/07/01 14:04:08.432, True, 0.995, 0.137484
2023/07/01 14:04:08.936, True, 0.995, 0.136950
2023/07/01 14:04:09.432, True, 1.012, 0.138781
2023/07/01 14:04:09.936, True, 0.994, 0.135882
2023/07/01 14:04:10.440, True, 0.994, 0.136645
2023/07/01 14:04:10.935, True, 1.011, 0.136797
2023/07/01 14:04:11.440, True, 0.994, 0.136339
2023/07/01 14:04:11.944, True, 0.995, 0.136492
2023/07/01 14:04:12.440, True, 1.011, 0.137026
2023/07/01 14:04:12.944, True, 0.995, 0.137331
2023/07/01 14:04:13.448, True, 0.995, 0.136492
2023/07/01 14:04:13.952, True, 0.996, 0.138018